カタログに戻る

STARLINK-6187

運用中通信VLEO
NORAD 56546·PAYLOAD·🇺🇸 United States

打ち上げ May 14, 2023 から Cape Canaveral Space Force Station

Loading…

次のパス (今後24時間)

TLE

最新Source: CelesTrak SupGP

元期: Sep 15, 2026, 02:27 UTC

1 56546C 23065AV  26258.10256944 -.00041262  00000+0 -14948-2 0  2588
2 56546  43.0006 234.0947 0001509 266.5055 249.3654 15.27593024    16

AllMySatでSTARLINK-6187をリアルタイム追跡

Download on the App Store